Location: Waco, TX
(31.5480°N, 97.1670°W)
Time: 00:11:51
(UTC-05:00)

ISS - Pass Details

Date: 18 May 2018
Orbit: 402 x 407 km, 51.6° (Epoch: 21 May)

Event Time Altitude Azimuth Distance (km) Brightness Sun altitude
Rises 05:44:10 0° 330° (NNW) 2,314 0.0 -9.6°
Reaches altitude 10° 05:46:46 10° 352° (N) 1,453 -0.7 -9.1°
Maximum altitude 05:48:59 17° 35° (NE) 1,108 -0.6 -8.7°
Drops below altitude 10° 05:51:12 10° 78° (ENE) 1,450 0.4 -8.3°
Sets 05:53:47 0° 100° (E) 2,307 0.9 -7.8°
